To NAV CANADA Home Page Login to a new session Search on AWWS site Feedback and Comments Disclaimer Vers la page française équivalente Tips FAQ What's new on the site To the Forecasts and Observations / NOTAM section To "File a Flight Plan" website Publications and other links Update of the User's profile FIC Telephone Numbers My Weather Data Folder Route Weather Data Regional Weather Data Local Weather Data To the Forecasts and Observations / NOTAM section
Request Generated 03/28/2015 at 00:28:50 UTC . Weather information available at that time is displayed.

METAR/TAF

AUPALUK/QC    

METAR CYLA 272100Z 26010G18KT 15SM FEW090 FEW230 M18/M22 A2974 RMK AC1CI1 SNW CVR/HARD PACK LAST OBS/NXT 281200Z SLP077=

CYLA - No TAF is issued for this station

Your time UTC time
Weather data provided by Environment Canada and NAV CANADA